When you browse on this site, cookies collect data to enhance your experience and personalize the content and advertising you see.
Visit our Privacy Policy to learn more. By continuing to use the site, you agree to this use of cookies and data.
  • en Suisse
  • Liste des pays
  • À 7 jours
  • Température de l'eau
  • Carte météo
  • Widgets météo
  • user-avatar
    Se connecter

    Météo par heure à Jalalabad

    Ce jour, 22 Octobre, Mardi

    Heure Température Précipitation Vent Pression Humidité
    00:00 +22°C° 0 mm 0 m/s 710 mmHg 47%
    01:00 +21°C° 0 mm 0 m/s 710 mmHg 48%
    02:00 +21°C° 0 mm 0 m/s 710 mmHg 49%
    03:00 +20°C° 0 mm 0 m/s 710 mmHg 50%
    04:00 +20°C° 0 mm 0 m/s 709 mmHg 51%
    05:00 +20°C° 0 mm 0 m/s 710 mmHg 54%
    06:00 +21°C° 0 mm 0 m/s 710 mmHg 49%
    07:00 +22°C° 0 mm 0 m/s 710 mmHg 45%
    08:00 +22°C° 0 mm 0 m/s 711 mmHg 41%
    09:00 +23°C° 0 mm 0 m/s 710 mmHg 39%
    10:00 +26°C° 0 mm 1 m/s 710 mmHg 37%
    11:00 +27°C° 0 mm 1 m/s 710 mmHg 35%
    12:00 +27°C° 0 mm 1 m/s 710 mmHg 34%
    13:00 +28°C° 0 mm 1 m/s 709 mmHg 32%
    14:00 +28°C° 0 mm 1 m/s 709 mmHg 31%
    15:00 +28°C° 0 mm 1 m/s 709 mmHg 32%
    16:00 +28°C° 0 mm 1 m/s 708 mmHg 32%
    17:00 +28°C° 0 mm 1 m/s 708 mmHg 33%
    18:00 +27°C° 0 mm 1 m/s 709 mmHg 37%
    19:00 +24°C° 0 mm 0 m/s 709 mmHg 41%
    20:00 +23°C° 0 mm 0 m/s 709 mmHg 46%
    21:00 +22°C° 0.1 mm 0 m/s 709 mmHg 46%
    22:00 +22°C° 0.1 mm 0 m/s 709 mmHg 46%
    23:00 +24°C° 0.1 mm 1 m/s 709 mmHg 47%

    Demain, 23 Octobre, Mercredi

    Heure Température Précipitation Vent Pression Humidité
    00:00 +23°C° 0 mm 1 m/s 709 mmHg 47%
    01:00 +23°C° 0 mm 1 m/s 709 mmHg 47%
    02:00 +22°C° 0 mm 1 m/s 709 mmHg 47%
    03:00 +22°C° 0.1 mm 1 m/s 709 mmHg 47%
    04:00 +22°C° 0.1 mm 1 m/s 709 mmHg 47%
    05:00 +21°C° 0.1 mm 1 m/s 709 mmHg 47%
    06:00 +22°C° 0 mm 1 m/s 709 mmHg 43%
    07:00 +23°C° 0 mm 1 m/s 709 mmHg 39%
    08:00 +23°C° 0 mm 1 m/s 709 mmHg 35%
    09:00 +25°C° 0 mm 1 m/s 710 mmHg 31%
    10:00 +26°C° 0 mm 1 m/s 710 mmHg 27%
    11:00 +27°C° 0 mm 1 m/s 710 mmHg 23%
    12:00 +27°C° 0 mm 1 m/s 709 mmHg 22%
    13:00 +28°C° 0 mm 1 m/s 709 mmHg 21%
    14:00 +29°C° 0 mm 1 m/s 708 mmHg 20%
    15:00 +29°C° 0 mm 1 m/s 708 mmHg 21%
    16:00 +28°C° 0 mm 1 m/s 708 mmHg 22%
    17:00 +28°C° 0 mm 1 m/s 708 mmHg 23%
    18:00 +25°C° 0 mm 0 m/s 708 mmHg 26%
    19:00 +24°C° 0 mm 0 m/s 708 mmHg 30%
    20:00 +23°C° 0 mm 0 m/s 709 mmHg 33%
    21:00 +22°C° 0 mm 0 m/s 709 mmHg 34%
    22:00 +22°C° 0 mm 0 m/s 709 mmHg 35%
    23:00 +21°C° 0 mm 0 m/s 709 mmHg 36%

    Après-demain, 24 Octobre, Jeudi

    Heure Température Précipitation Vent Pression Humidité
    00:00 +21°C° 0 mm 0 m/s 709 mmHg 36%
    01:00 +21°C° 0 mm 0 m/s 709 mmHg 36%
    02:00 +23°C° 0 mm 1 m/s 709 mmHg 36%
    03:00 +22°C° 0 mm 1 m/s 709 mmHg 36%
    04:00 +22°C° 0 mm 1 m/s 709 mmHg 36%
    05:00 +21°C° 0 mm 1 m/s 709 mmHg 37%
    06:00 +22°C° 0 mm 1 m/s 710 mmHg 35%
    07:00 +23°C° 0 mm 1 m/s 710 mmHg 32%
    08:00 +24°C° 0 mm 1 m/s 711 mmHg 30%
    09:00 +25°C° 0 mm 1 m/s 711 mmHg 27%
    10:00 +26°C° 0 mm 1 m/s 711 mmHg 23%
    11:00 +27°C° 0 mm 1 m/s 711 mmHg 20%
    12:00 +28°C° 0 mm 1 m/s 710 mmHg 19%
    13:00 +29°C° 0 mm 1 m/s 710 mmHg 19%
    14:00 +29°C° 0 mm 1 m/s 709 mmHg 19%
    15:00 +29°C° 0 mm 1 m/s 709 mmHg 21%
    16:00 +29°C° 0 mm 1 m/s 709 mmHg 22%
    17:00 +29°C° 0 mm 1 m/s 709 mmHg 24%
    18:00 +27°C° 0 mm 1 m/s 709 mmHg 27%
    19:00 +26°C° 0 mm 1 m/s 710 mmHg 31%
    20:00 +23°C° 0 mm 0 m/s 710 mmHg 34%
    21:00 +22°C° 0 mm 0 m/s 710 mmHg 35%
    22:00 +22°C° 0 mm 0 m/s 710 mmHg 36%
    23:00 +21°C° 0 mm 0 m/s 710 mmHg 37%

    25 Octobre, Vendredi

    Heure Température Précipitation Vent Pression Humidité
    00:00 +21°C° 0 mm 0 m/s 710 mmHg 37%
    01:00 +21°C° 0 mm 0 m/s 710 mmHg 38%
    02:00 +22°C° 0 mm 1 m/s 709 mmHg 38%
    03:00 +20°C° 0 mm 0 m/s 709 mmHg 38%
    04:00 +19°C° 0 mm 0 m/s 709 mmHg 38%
    05:00 +19°C° 0 mm 0 m/s 709 mmHg 38%
    06:00 +20°C° 0 mm 0 m/s 710 mmHg 36%
    07:00 +21°C° 0 mm 0 m/s 710 mmHg 34%
    08:00 +24°C° 0 mm 1 m/s 710 mmHg 32%
    09:00 +25°C° 0 mm 1 m/s 711 mmHg 28%
    10:00 +27°C° 0 mm 1 m/s 711 mmHg 25%
    11:00 +28°C° 0 mm 1 m/s 711 mmHg 21%
    12:00 +28°C° 0 mm 1 m/s 710 mmHg 21%
    13:00 +29°C° 0 mm 1 m/s 710 mmHg 20%
    14:00 +29°C° 0 mm 1 m/s 709 mmHg 19%
    15:00 +29°C° 0 mm 1 m/s 709 mmHg 21%
    16:00 +29°C° 0 mm 1 m/s 709 mmHg 23%
    17:00 +28°C° 0 mm 2 m/s 709 mmHg 25%
    18:00 +27°C° 0 mm 1 m/s 710 mmHg 30%
    19:00 +26°C° 0 mm 1 m/s 710 mmHg 34%
    20:00 +23°C° 0 mm 0 m/s 710 mmHg 38%
    21:00 +23°C° 0 mm 0 m/s 710 mmHg 38%
    22:00 +22°C° 0 mm 0 m/s 710 mmHg 38%
    23:00 +22°C° 0 mm 0 m/s 710 mmHg 39%

    26 Octobre, Samedi

    Heure Température Précipitation Vent Pression Humidité
    00:00 +21°C° 0 mm 0 m/s 710 mmHg 39%
    01:00 +21°C° 0 mm 0 m/s 710 mmHg 39%
    02:00 +21°C° 0 mm 0 m/s 710 mmHg 39%
    03:00 +20°C° 0 mm 0 m/s 710 mmHg 39%
    04:00 +20°C° 0 mm 0 m/s 710 mmHg 40%
    05:00 +20°C° 0 mm 0 m/s 710 mmHg 40%
    06:00 +21°C° 0.2 mm 0 m/s 710 mmHg 39%
    07:00 +21°C° 0.2 mm 0 m/s 711 mmHg 38%
    08:00 +22°C° 0.2 mm 0 m/s 711 mmHg 38%
    09:00 +23°C° 0.1 mm 0 m/s 712 mmHg 36%
    10:00 +25°C° 0.1 mm 1 m/s 712 mmHg 35%
    11:00 +26°C° 0.1 mm 1 m/s 712 mmHg 34%
    12:00 +27°C° 0.1 mm 1 m/s 711 mmHg 32%
    13:00 +27°C° 0.1 mm 1 m/s 711 mmHg 31%
    14:00 +28°C° 0.1 mm 1 m/s 711 mmHg 29%
    15:00 +28°C° 0 mm 1 m/s 711 mmHg 30%
    16:00 +28°C° 0 mm 1 m/s 711 mmHg 31%
    17:00 +28°C° 0 mm 1 m/s 711 mmHg 31%
    18:00 +27°C° 0 mm 1 m/s 711 mmHg 36%
    19:00 +24°C° 0 mm 0 m/s 711 mmHg 40%
    20:00 +23°C° 0 mm 0 m/s 712 mmHg 44%
    21:00 +22°C° 0 mm 0 m/s 712 mmHg 45%
    22:00 +22°C° 0 mm 0 m/s 712 mmHg 45%
    23:00 +21°C° 0 mm 0 m/s 712 mmHg 46%

    27 Octobre, Dimanche

    Heure Température Précipitation Vent Pression Humidité
    00:00 +21°C° 0 mm 0 m/s 712 mmHg 47%
    01:00 +20°C° 0 mm 0 m/s 711 mmHg 48%
    02:00 +20°C° 0 mm 0 m/s 711 mmHg 49%
    03:00 +20°C° 0 mm 0 m/s 711 mmHg 49%
    04:00 +19°C° 0 mm 0 m/s 711 mmHg 49%
    05:00 +19°C° 0 mm 0 m/s 711 mmHg 49%
    06:00 +20°C° 0 mm 0 m/s 712 mmHg 46%
    07:00 +21°C° 0 mm 0 m/s 712 mmHg 43%
    08:00 +22°C° 0 mm 0 m/s 713 mmHg 40%
    09:00 +23°C° 0 mm 0 m/s 713 mmHg 37%
    10:00 +24°C° 0 mm 0 m/s 713 mmHg 35%
    11:00 +27°C° 0 mm 1 m/s 713 mmHg 32%
    12:00 +28°C° 0 mm 1 m/s 712 mmHg 30%
    13:00 +28°C° 0 mm 1 m/s 712 mmHg 29%
    14:00 +29°C° 0 mm 1 m/s 712 mmHg 27%
    15:00 +29°C° 0 mm 1 m/s 711 mmHg 28%
    16:00 +29°C° 0 mm 1 m/s 711 mmHg 29%
    17:00 +28°C° 0 mm 1 m/s 711 mmHg 30%
    18:00 +27°C° 0 mm 1 m/s 711 mmHg 34%
    19:00 +24°C° 0 mm 0 m/s 712 mmHg 38%
    20:00 +23°C° 0 mm 0 m/s 712 mmHg 41%
    21:00 +23°C° 0 mm 0 m/s 712 mmHg 42%
    22:00 +22°C° 0 mm 0 m/s 712 mmHg 42%
    23:00 +22°C° 0 mm 0 m/s 712 mmHg 42%

    28 Octobre, Lundi

    Heure Température Précipitation Vent Pression Humidité
    00:00 +21°C° 0 mm 0 m/s 712 mmHg 42%
    01:00 +21°C° 0 mm 0 m/s 711 mmHg 43%
    02:00 +21°C° 0 mm 0 m/s 711 mmHg 43%
    03:00 +20°C° 0 mm 0 m/s 711 mmHg 43%
    04:00 +20°C° 0 mm 0 m/s 711 mmHg 43%
    05:00 +19°C° 0 mm 0 m/s 711 mmHg 44%
    06:00 +20°C° 0 mm 0 m/s 711 mmHg 42%
    07:00 +21°C° 0 mm 0 m/s 711 mmHg 41%
    08:00 +22°C° 0 mm 0 m/s 712 mmHg 39%
    09:00 +24°C° 0 mm 0 m/s 712 mmHg 35%
    10:00 +25°C° 0 mm 0 m/s 712 mmHg 31%
    11:00 +28°C° 0 mm 1 m/s 712 mmHg 27%
    12:00 +29°C° 0 mm 1 m/s 711 mmHg 26%
    13:00 +29°C° 0 mm 1 m/s 711 mmHg 25%
    14:00 +30°C° 0 mm 1 m/s 710 mmHg 23%
    15:00 +29°C° 0 mm 1 m/s 710 mmHg 25%
    16:00 +29°C° 0 mm 1 m/s 710 mmHg 26%
    17:00 +29°C° 0 mm 1 m/s 710 mmHg 28%
    18:00 +28°C° 0 mm 1 m/s 710 mmHg 31%
    19:00 +25°C° 0 mm 0 m/s 711 mmHg 35%
    20:00 +23°C° 0 mm 0 m/s 711 mmHg 38%
    21:00 +23°C° 0 mm 0 m/s 711 mmHg 38%
    22:00 +23°C° 0 mm 0 m/s 711 mmHg 38%
    23:00 +22°C° 0 mm 0 m/s 711 mmHg 39%
    Voir plus